Skip Page Navigation
NASA JPL Caltech
NASA Logo - Jet Propulsion Laboratory + View the NASA Portal
+ Near-Earth Object (NEO) Program
Search JPL
JPL Home Earth Solar System Stars & Galaxies Technology
JPL Solar System Dynamics
BODIES ORBITS EPHEMERIDES TOOLS PHYSICAL DATA DISCOVERY FAQ SITE MAP
JPL Small-Body Database Browser
Search: [ help ]  
5694 Berenyi (3051 P-L)
Classification: Main-belt Asteroid          SPK-ID: 2005694
Ephemeris | Orbit Diagram | Orbital Elements | Physical Parameters | Discovery Circumstances ]

[ show orbit diagram ]
Orbital Elements at Epoch 2457400.5 (2016-Jan-13.0) TDB
Reference: JPL 16 (heliocentric ecliptic J2000)
 Element Value Uncertainty (1-sigma)   Units 
e .1699998894417751 4.3367e-08  
a 2.605855565411983 1.3083e-08 au
q 2.162860407390712 1.1469e-07 au
i 12.2532409291693 7.837e-06 deg
node 227.5807223592786 2.0245e-05 deg
peri 79.31081521744629 3.3596e-05 deg
M 94.43557609399227 2.4566e-05 deg
tp 2456997.451721272218
(2014-Dec-05.95172127)
0.00010412 JED
period 1536.469478383711
4.21
1.1571e-05
3.168e-08
d
yr
n .2343033851728067 1.7646e-09 deg/d
Q 3.048850723433254 1.5308e-08 au
  Orbit Determination Parameters
   # obs. used (total)      1210  
   data-arc span      22122 days (60.57 yr)  
   first obs. used      1955-05-22  
   last obs. used      2015-12-15  
   planetary ephem.      DE431  
   SB-pert. ephem.      SB431-BIG16  
   condition code      0  
   fit RMS      .50442  
   data source      ORB  
   producer      Otto Matic  
   solution date      2016-Jan-04 12:57:17  

Additional Information
 Earth MOID = 1.18656 au 
 Jupiter MOID = 2.25693 au 
 T_jup = 3.360 
[ show covariance matrix ]

Ephemeris | Orbit Diagram | Orbital Elements | Physical Parameters | Discovery Circumstances ]

Physical Parameter Table
Parameter Symbol Value Units Sigma Reference Notes
absolute magnitude H 13.2 mag n/a MPO347570  

5694 Berenyi (3051 P-L)          Discovered 1960-Sep-24 by van Houten and Gehrels at Palomar
Reference: DISCOVERY.DBLast Updated: 2003-08-29

Alternate Designations
 3051 P-L = 1976 JT6 = 1989 NG 
Ephemeris | Orbit Diagram | Orbital Elements | Physical Parameters | Discovery Circumstances ]
ABOUT SSD CREDITS/AWARDS PRIVACY/COPYRIGHT GLOSSARY LINKS
FirstGov 2016-Feb-13 06:50 UT
(server date/time)  
NASA Home Page
Site Manager:   Ryan S. Park
Webmaster  Alan B. Chamberlin